| time (UTC) | temp F | wind direction | speed knots | gust knots | rain 1hr in | rain 24hr in | rain mn in | humidity % | barometer mb |
| 20260506002149 | 63 | 173 | 0.9 | 1.7 | 0.00 | 0.00 | 0.00 | 66 | 1014.8 |
| 20260506001644 | 63 | 144 | 1.7 | 3.5 | 0.00 | 0.00 | 0.00 | 66 | 1014.8 |
| 20260506001142 | 63 | 177 | 1.7 | 3.5 | 0.00 | 0.00 | 0.00 | 65 | 1014.8 |
| 20260506000639 | 64 | 179 | 2.6 | 5.2 | 0.00 | 0.00 | 0.00 | 65 | 1015.1 |
| 20260506000136 | 64 | 168 | 0.9 | 1.7 | 0.00 | 0.00 | 0.00 | 65 | 1015.1 |
| 20260505235634 | 65 | 190 | 1.7 | 1.7 | 0.00 | 0.00 | 0.00 | 63 | 1015.0 |
| 20260505235131 | 65 | 196 | 3.5 | 3.5 | 0.00 | 0.00 | 0.00 | 63 | 1015.1 |
| 20260505234628 | 64 | 56 | 1.7 | 2.6 | 0.00 | 0.00 | 0.00 | 64 | 1015.3 |
| 20260505234125 | 65 | 201 | 1.7 | 3.5 | 0.00 | 0.00 | 0.00 | 65 | 1015.1 |
| 20260505233622 | 64 | 145 | 1.7 | 2.6 | 0.00 | 0.00 | 0.00 | 65 | 1015.4 |
| 20260505233120 | 65 | 167 | 0.9 | 2.6 | 0.00 | 0.00 | 0.00 | 63 | 1015.2 |
| 20260505232617 | 64 | 188 | 2.6 | 3.5 | 0.00 | 0.00 | 0.00 | 65 | 1015.4 |
| 20260505232115 | 63 | 159 | 1.7 | 6.1 | 0.00 | 0.00 | 0.00 | 67 | 1015.3 |
| 20260505231611 | 63 | 163 | 0.9 | 2.6 | 0.00 | 0.00 | 0.00 | 66 | 1015.4 |
| 20260505231110 | 62 | 167 | 0.9 | 2.6 | 0.00 | 0.00 | 0.00 | 68 | 1015.6 |
| 20260505230608 | 62 | 154 | 0.0 | 1.7 | 0.00 | 0.00 | 0.00 | 69 | 1015.6 |
| 20260505225600 | 61 | 158 | 0.9 | 1.7 | 0.00 | 0.00 | 0.00 | 70 | 1015.7 |
| 20260505225056 | 61 | 149 | 0.9 | 3.5 | 0.00 | 0.00 | 0.00 | 71 | 1015.6 |
| 20260505224553 | 60 | 207 | 1.7 | 2.6 | 0.00 | 0.00 | 0.00 | 72 | 1015.7 |
| 20260505224051 | 61 | 210 | 2.6 | 3.5 | 0.00 | 0.00 | 0.00 | 71 | 1015.6 |
| 20260505223548 | 61 | 234 | 1.7 | 6.1 | 0.00 | 0.00 | 0.00 | 70 | 1015.8 |
| 20260505223044 | 61 | 199 | 0.0 | 1.7 | 0.00 | 0.00 | 0.00 | 71 | 1015.6 |
| 20260505222540 | 61 | 170 | 0.9 | 2.6 | 0.00 | 0.00 | 0.00 | 71 | 1015.6 |
| 20260505222036 | 61 | 147 | 0.0 | 1.7 | 0.00 | 0.00 | 0.00 | 72 | 1015.7 |
| 20260505221534 | 61 | 178 | 1.7 | 1.7 | 0.00 | 0.00 | 0.00 | 71 | 1015.9 |
| 20260505221030 | 60 | 133 | 0.9 | 1.7 | 0.00 | 0.00 | 0.00 | 72 | 1015.9 |
| 20260505220527 | 60 | 136 | 1.7 | 1.7 | 0.00 | 0.00 | 0.00 | 72 | 1015.9 |
| 20260505220025 | 60 | 154 | 0.0 | 2.6 | 0.00 | 0.00 | 0.00 | 72 | 1016.1 |
| 20260505215523 | 60 | 144 | 0.9 | 0.9 | 0.00 | 0.00 | 0.00 | 72 | 1015.8 |
| 20260505215021 | 60 | 181 | 1.7 | 3.5 | 0.00 | 0.00 | 0.00 | 72 | 1016.2 |
| 20260505214519 | 60 | 139 | 0.9 | 0.9 | 0.00 | 0.00 | 0.00 | 73 | 1016.0 |
| 20260505214015 | 60 | 139 | 0.0 | 2.6 | 0.00 | 0.00 | 0.00 | 72 | 1016.2 |
| 20260505213513 | 60 | 161 | 0.9 | 2.6 | 0.00 | 0.00 | 0.00 | 73 | 1016.0 |
| 20260505213009 | 60 | 132 | 0.9 | 1.7 | 0.00 | 0.00 | 0.00 | 72 | 1016.0 |
| 20260505212506 | 59 | 179 | 1.7 | 1.7 | 0.00 | 0.00 | 0.00 | 73 | 1016.1 |
| 20260505212003 | 59 | 148 | 1.7 | 2.6 | 0.00 | 0.00 | 0.00 | 73 | 1016.0 |
| 20260505211500 | 60 | 222 | 3.5 | 3.5 | 0.00 | 0.00 | 0.00 | 72 | 1016.0 |
| 20260505210956 | 60 | 143 | 0.9 | 1.7 | 0.00 | 0.00 | 0.00 | 72 | 1016.1 |
| 20260505210453 | 59 | 161 | 1.7 | 5.2 | 0.00 | 0.00 | 0.00 | 73 | 1016.2 |
| 20260505205950 | 59 | 139 | 1.7 | 3.5 | 0.00 | 0.00 | 0.00 | 73 | 1016.0 |
| 20260505205449 | 59 | 156 | 0.9 | 0.9 | 0.00 | 0.00 | 0.00 | 75 | 1016.3 |
| 20260505204945 | 59 | 143 | 0.9 | 1.7 | 0.00 | 0.00 | 0.00 | 76 | 1016.2 |
| 20260505204443 | 59 | 165 | 0.9 | 1.7 | 0.00 | 0.00 | 0.00 | 74 | 1016.1 |
| 20260505203940 | 58 | 182 | 1.7 | 5.2 | 0.00 | 0.00 | 0.00 | 75 | 1016.2 |
| 20260505203436 | 58 | 161 | 0.9 | 1.7 | 0.00 | 0.00 | 0.00 | 75 | 1016.4 |
| 20260505202933 | 58 | 193 | 0.9 | 1.7 | 0.00 | 0.00 | 0.00 | 76 | 1016.2 |
| 20260505202429 | 59 | 166 | 1.7 | 2.6 | 0.00 | 0.00 | 0.00 | 74 | 1016.3 |
| 20260505201926 | 59 | 148 | 0.9 | 1.7 | 0.00 | 0.00 | 0.00 | 75 | 1016.0 |
| 20260505201423 | 59 | 167 | 0.9 | 1.7 | 0.00 | 0.00 | 0.00 | 75 | 1016.3 |
| 20260505200921 | 59 | 149 | 0.9 | 2.6 | 0.00 | 0.00 | 0.00 | 75 | 1015.9 |
| 20260505200418 | 59 | 153 | 0.9 | 1.7 | 0.00 | 0.00 | 0.00 | 74 | 1016.1 |
| 20260505195913 | 59 | 171 | 0.9 | 1.7 | 0.00 | 0.00 | 0.00 | 76 | 1016.2 |
| 20260505195411 | 58 | 148 | 0.0 | 2.6 | 0.00 | 0.00 | 0.00 | 77 | 1016.3 |
| 20260505194908 | 58 | 191 | 0.9 | 1.7 | 0.00 | 0.00 | 0.00 | 76 | 1016.3 |
| 20260505194406 | 58 | 177 | 0.0 | 1.7 | 0.00 | 0.00 | 0.00 | 75 | 1016.0 |
| 20260505193905 | 58 | 155 | 0.0 | 0.0 | 0.00 | 0.00 | 0.00 | 77 | 1016.1 |
| 20260505193404 | 58 | 147 | 0.0 | 0.9 | 0.00 | 0.00 | 0.00 | 76 | 1016.1 |
| 20260505192901 | 58 | 223 | 0.9 | 3.5 | 0.00 | 0.00 | 0.00 | 75 | 1016.4 |
| 20260505192359 | 58 | 134 | 0.9 | 1.7 | 0.00 | 0.00 | 0.00 | 77 | 1016.2 |
| 20260505191856 | 58 | 154 | 1.7 | 3.5 | 0.00 | 0.00 | 0.00 | 75 | 1016.2 |
| 20260505191355 | 58 | 174 | 0.9 | 1.7 | 0.00 | 0.00 | 0.00 | 76 | 1016.1 |
| 20260505190851 | 58 | 163 | 0.9 | 0.9 | 0.00 | 0.00 | 0.00 | 76 | 1016.1 |
| 20260505190347 | 58 | 146 | 0.9 | 2.6 | 0.00 | 0.00 | 0.00 | 76 | 1016.1 |
| 20260505185842 | 57 | 117 | 0.0 | 1.7 | 0.00 | 0.00 | 0.00 | 77 | 1016.0 |
| 20260505185339 | 57 | 120 | 1.7 | 2.6 | 0.00 | 0.00 | 0.00 | 77 | 1016.0 |
| 20260505184835 | 58 | 191 | 1.7 | 3.5 | 0.00 | 0.00 | 0.00 | 76 | 1016.0 |
| 20260505184332 | 58 | 157 | 0.9 | 0.9 | 0.00 | 0.00 | 0.00 | 76 | 1016.0 |
| 20260505183829 | 57 | 110 | 0.9 | 2.6 | 0.00 | 0.00 | 0.00 | 78 | 1016.1 |
| 20260505183326 | 57 | 121 | 0.9 | 1.7 | 0.00 | 0.00 | 0.00 | 78 | 1016.0 |
| 20260505182823 | 58 | 163 | 3.5 | 5.2 | 0.00 | 0.00 | 0.00 | 76 | 1016.1 |
| 20260505182320 | 58 | 133 | 0.0 | 0.9 | 0.00 | 0.00 | 0.00 | 77 | 1016.2 |
| 20260505181816 | 57 | 142 | 0.0 | 2.6 | 0.00 | 0.00 | 0.00 | 77 | 1016.1 |
| 20260505181314 | 57 | 147 | 0.9 | 1.7 | 0.00 | 0.00 | 0.00 | 77 | 1016.0 |
| 20260505180810 | 57 | 189 | 1.7 | 2.6 | 0.00 | 0.00 | 0.00 | 77 | 1015.8 |
| 20260505180307 | 57 | 128 | 0.0 | 1.7 | 0.00 | 0.00 | 0.00 | 77 | 1015.9 |
| 20260505175803 | 57 | 131 | 0.0 | 0.9 | 0.00 | 0.00 | 0.00 | 78 | 1016.0 |
| 20260505175300 | 57 | 148 | 0.9 | 1.7 | 0.00 | 0.00 | 0.00 | 78 | 1016.0 |
| 20260505174756 | 57 | 131 | 0.9 | 1.7 | 0.00 | 0.00 | 0.00 | 78 | 1016.2 |
| 20260505174253 | 57 | 156 | 0.0 | 1.7 | 0.00 | 0.00 | 0.00 | 78 | 1016.1 |
| 20260505173749 | 57 | 134 | 0.9 | 0.9 | 0.00 | 0.00 | 0.00 | 78 | 1016.0 |
| 20260505173246 | 57 | 129 | 0.0 | 0.9 | 0.00 | 0.00 | 0.00 | 79 | 1016.0 |
| 20260505172743 | 57 | 149 | 0.0 | 0.9 | 0.00 | 0.00 | 0.00 | 79 | 1015.9 |
| 20260505172240 | 57 | 138 | 0.0 | 0.9 | 0.00 | 0.00 | 0.00 | 79 | 1015.9 |
| 20260505171740 | 56 | 137 | 0.9 | 1.7 | 0.00 | 0.00 | 0.00 | 79 | 1015.9 |
| 20260505171237 | 56 | 171 | 0.9 | 0.9 | 0.00 | 0.00 | 0.00 | 80 | 1015.8 |
| 20260505170734 | 56 | 162 | 0.0 | 0.9 | 0.00 | 0.00 | 0.00 | 80 | 1015.9 |
| 20260505170231 | 56 | 170 | 1.7 | 1.7 | 0.00 | 0.00 | 0.00 | 79 | 1015.9 |
| 20260505165726 | 56 | 146 | 0.0 | 1.7 | 0.00 | 0.00 | 0.00 | 81 | 1015.7 |
| 20260505165222 | 55 | 151 | 0.0 | 0.9 | 0.00 | 0.00 | 0.00 | 81 | 1015.8 |
| 20260505164718 | 55 | 148 | 0.9 | 3.5 | 0.00 | 0.00 | 0.00 | 82 | 1015.8 |
| 20260505164215 | 55 | 172 | 1.7 | 5.2 | 0.00 | 0.00 | 0.00 | 81 | 1015.9 |
| 20260505163713 | 55 | 151 | 0.0 | 0.9 | 0.00 | 0.00 | 0.00 | 82 | 1015.8 |
| 20260505163212 | 55 | 139 | 0.0 | 1.7 | 0.00 | 0.00 | 0.00 | 82 | 1015.7 |
| 20260505162709 | 55 | 200 | 1.7 | 2.6 | 0.00 | 0.00 | 0.00 | 81 | 1015.6 |
| 20260505162206 | 55 | 146 | 0.9 | 3.5 | 0.00 | 0.00 | 0.00 | 81 | 1015.6 |
| 20260505161702 | 55 | 127 | 0.9 | 1.7 | 0.00 | 0.00 | 0.00 | 81 | 1015.8 |
| 20260505161200 | 55 | 163 | 0.9 | 0.9 | 0.00 | 0.00 | 0.00 | 81 | 1015.8 |
| 20260505160658 | 55 | 129 | 1.7 | 2.6 | 0.00 | 0.00 | 0.00 | 81 | 1015.5 |
| 20260505160155 | 55 | 122 | 0.0 | 0.9 | 0.00 | 0.00 | 0.00 | 81 | 1015.6 |
| 20260505153134 | 55 | 201 | 3.5 | 3.5 | 0.00 | 0.00 | 0.00 | 81 | 1015.5 |
| 20260505152631 | 55 | 117 | 0.9 | 1.7 | 0.00 | 0.00 | 0.00 | 82 | 1015.4 |
| 20260505152127 | 55 | 194 | 0.9 | 1.7 | 0.00 | 0.00 | 0.00 | 82 | 1015.5 |
| 20260505151622 | 55 | 199 | 1.7 | 3.5 | 0.00 | 0.00 | 0.00 | 82 | 1015.2 |
| 20260505151120 | 55 | 142 | 0.0 | 0.9 | 0.00 | 0.00 | 0.00 | 83 | 1015.3 |
| 20260505150616 | 54 | 211 | 1.7 | 2.6 | 0.00 | 0.00 | 0.00 | 82 | 1015.2 |
| 20260505150113 | 54 | 189 | 0.9 | 1.7 | 0.00 | 0.00 | 0.00 | 83 | 1015.3 |
| 20260505140541 | 54 | 212 | 0.9 | 1.7 | 0.00 | 0.00 | 0.00 | 84 | 1014.8 |
| 20260505124955 | 54 | 143 | 0.0 | 1.7 | 0.00 | 0.00 | 0.00 | 83 | 1013.9 |
| 20260505124451 | 54 | 150 | 0.0 | 0.9 | 0.00 | 0.00 | 0.00 | 84 | 1014.0 |
| 20260505123947 | 54 | 182 | 1.7 | 1.7 | 0.00 | 0.00 | 0.00 | 84 | 1013.8 |
| 20260505123444 | 54 | 157 | 0.0 | 1.7 | 0.00 | 0.00 | 0.00 | 84 | 1013.6 |
| 20260505122940 | 54 | 149 | 0.0 | 0.9 | 0.00 | 0.00 | 0.00 | 84 | 1013.9 |
| 20260505122438 | 54 | 138 | 0.0 | 6.1 | 0.00 | 0.00 | 0.00 | 84 | 1013.9 |
| 20260505121934 | 54 | 146 | 0.9 | 3.5 | 0.00 | 0.00 | 0.00 | 84 | 1013.9 |
| 20260505121432 | 54 | 170 | 0.9 | 1.7 | 0.00 | 0.00 | 0.00 | 84 | 1013.8 |
| 20260505120927 | 54 | 145 | 0.0 | 1.7 | 0.00 | 0.00 | 0.00 | 85 | 1013.8 |
| 20260505120424 | 54 | 134 | 0.9 | 1.7 | 0.00 | 0.00 | 0.00 | 85 | 1013.6 |
| 20260505115923 | 54 | 198 | 1.7 | 1.7 | 0.00 | 0.00 | 0.00 | 85 | 1013.7 |
| 20260505115420 | 54 | 140 | 0.0 | 2.6 | 0.00 | 0.00 | 0.00 | 85 | 1013.7 |
| 20260505114918 | 54 | 150 | 0.0 | 0.9 | 0.00 | 0.00 | 0.00 | 85 | 1013.5 |
| 20260505114414 | 54 | 156 | 0.9 | 7.0 | 0.00 | 0.00 | 0.00 | 85 | 1013.4 |
| 20260505113910 | 54 | 169 | 0.9 | 0.9 | 0.00 | 0.00 | 0.00 | 85 | 1013.4 |
| 20260505113407 | 54 | 205 | 2.6 | 3.5 | 0.00 | 0.00 | 0.00 | 85 | 1013.5 |
| 20260505112903 | 54 | 141 | 0.0 | 0.9 | 0.00 | 0.00 | 0.00 | 85 | 1013.3 |
| 20260505112400 | 54 | 148 | 0.9 | 0.9 | 0.00 | 0.00 | 0.00 | 85 | 1013.4 |
| 20260505111856 | 54 | 147 | 0.0 | 1.7 | 0.00 | 0.00 | 0.00 | 85 | 1013.7 |
| 20260505111351 | 54 | 153 | 0.9 | 3.5 | 0.00 | 0.00 | 0.00 | 85 | 1013.5 |
| 20260505110847 | 54 | 205 | 1.7 | 2.6 | 0.00 | 0.00 | 0.00 | 85 | 1013.5 |
| 20260505110345 | 54 | 139 | 2.6 | 3.5 | 0.00 | 0.00 | 0.00 | 85 | 1013.3 |
| 20260505101815 | 54 | 191 | 0.9 | 1.7 | 0.00 | 0.00 | 0.00 | 87 | 1013.1 |
| 20260505101310 | 53 | 157 | 1.7 | 5.2 | 0.00 | 0.00 | 0.00 | 86 | 1013.0 |
| 20260505100806 | 54 | 161 | 2.6 | 3.5 | 0.00 | 0.00 | 0.00 | 86 | 1013.2 |
| 20260505100303 | 54 | 199 | 3.5 | 6.1 | 0.00 | 0.00 | 0.00 | 87 | 1013.2 |
| 20260505095759 | 54 | 221 | 2.6 | 3.5 | 0.00 | 0.00 | 0.00 | 87 | 1013.0 |
| 20260505095257 | 53 | 173 | 0.9 | 1.7 | 0.00 | 0.00 | 0.00 | 87 | 1012.8 |
| 20260505094752 | 53 | 157 | 0.9 | 2.6 | 0.00 | 0.00 | 0.00 | 87 | 1013.0 |
| 20260505094249 | 53 | 144 | 0.9 | 7.0 | 0.00 | 0.00 | 0.00 | 87 | 1013.1 |
| 20260505093745 | 53 | 236 | 1.7 | 2.6 | 0.00 | 0.00 | 0.00 | 87 | 1013.1 |
| 20260505093243 | 53 | 153 | 0.0 | 2.6 | 0.00 | 0.00 | 0.00 | 87 | 1012.8 |
| 20260505092739 | 53 | 189 | 1.7 | 5.2 | 0.00 | 0.00 | 0.00 | 87 | 1012.7 |
| 20260505092238 | 53 | 131 | 0.0 | 1.7 | 0.00 | 0.00 | 0.00 | 87 | 1012.8 |
| 20260505091735 | 53 | 182 | 2.6 | 3.5 | 0.00 | 0.00 | 0.00 | 88 | 1012.5 |
| 20260505091233 | 53 | 154 | 0.0 | 2.6 | 0.00 | 0.00 | 0.00 | 88 | 1012.5 |
| 20260505090730 | 53 | 130 | 0.9 | 3.5 | 0.00 | 0.00 | 0.00 | 87 | 1012.6 |
| 20260505090229 | 53 | 133 | 0.9 | 1.7 | 0.00 | 0.00 | 0.00 | 87 | 1012.7 |
| 20260505085725 | 53 | 171 | 0.9 | 2.6 | 0.00 | 0.00 | 0.00 | 87 | 1012.5 |
| 20260505085224 | 53 | 139 | 0.9 | 3.5 | 0.00 | 0.00 | 0.00 | 87 | 1012.4 |
| 20260505084721 | 53 | 150 | 1.7 | 5.2 | 0.00 | 0.00 | 0.00 | 87 | 1012.4 |
| 20260505084220 | 53 | 140 | 1.7 | 5.2 | 0.00 | 0.00 | 0.00 | 87 | 1012.3 |
| 20260505083716 | 53 | 153 | 0.9 | 3.5 | 0.00 | 0.00 | 0.00 | 87 | 1012.4 |
| 20260505083213 | 53 | 186 | 0.9 | 5.2 | 0.00 | 0.00 | 0.00 | 87 | 1012.4 |
| 20260505082709 | 53 | 245 | 1.7 | 5.2 | 0.00 | 0.00 | 0.00 | 87 | 1012.4 |
| 20260505082206 | 53 | 186 | 0.9 | 5.2 | 0.00 | 0.00 | 0.00 | 86 | 1012.3 |
| 20260505081702 | 54 | 150 | 1.7 | 3.5 | 0.00 | 0.00 | 0.00 | 86 | 1012.5 |
| 20260505081159 | 54 | 138 | 1.7 | 1.7 | 0.00 | 0.00 | 0.00 | 86 | 1012.3 |
| 20260505080656 | 54 | 154 | 0.9 | 0.9 | 0.00 | 0.00 | 0.00 | 86 | 1012.3 |
| 20260505080152 | 54 | 148 | 0.0 | 0.9 | 0.00 | 0.00 | 0.00 | 86 | 1012.5 |
| 20260505075648 | 54 | 153 | 0.0 | 1.7 | 0.00 | 0.00 | 0.00 | 86 | 1012.2 |
| 20260505075145 | 54 | 180 | 0.9 | 2.6 | 0.00 | 0.00 | 0.00 | 86 | 1012.3 |
| 20260505074642 | 54 | 145 | 0.9 | 1.7 | 0.00 | 0.00 | 0.00 | 85 | 1012.1 |
| 20260505074139 | 54 | 150 | 1.7 | 3.5 | 0.00 | 0.00 | 0.00 | 85 | 1012.2 |
| 20260505073637 | 54 | 149 | 0.0 | 2.6 | 0.00 | 0.00 | 0.00 | 85 | 1012.0 |
| 20260505073135 | 54 | 140 | 0.0 | 3.5 | 0.00 | 0.00 | 0.00 | 85 | 1011.9 |
| 20260505072630 | 54 | 144 | 0.9 | 3.5 | 0.00 | 0.00 | 0.00 | 85 | 1011.9 |
| 20260505072127 | 54 | 126 | 0.0 | 2.6 | 0.00 | 0.00 | 0.00 | 85 | 1011.9 |
| 20260505071623 | 54 | 145 | 0.9 | 5.2 | 0.00 | 0.00 | 0.00 | 85 | 1011.7 |
| 20260505071121 | 54 | 117 | 1.7 | 3.5 | 0.00 | 0.00 | 0.00 | 84 | 1011.7 |
| 20260505070618 | 55 | 217 | 2.6 | 3.5 | 0.00 | 0.00 | 0.00 | 84 | 1011.6 |
| 20260505070114 | 55 | 134 | 0.9 | 1.7 | 0.00 | 0.00 | 0.00 | 84 | 1011.9 |
| 20260505065610 | 55 | 181 | 1.7 | 2.6 | 0.00 | 0.00 | 0.00 | 84 | 1011.8 |
| 20260505065106 | 55 | 162 | 0.9 | 6.1 | 0.00 | 0.00 | 0.00 | 83 | 1011.5 |
| 20260505064603 | 55 | 110 | 0.9 | 1.7 | 0.00 | 0.00 | 0.00 | 83 | 1011.7 |
| 20260505064102 | 55 | 198 | 1.7 | 1.7 | 0.00 | 0.00 | 0.00 | 83 | 1011.6 |
| 20260505063559 | 55 | 148 | 0.9 | 2.6 | 0.00 | 0.00 | 0.00 | 83 | 1011.5 |
| 20260505063055 | 55 | 146 | 2.6 | 3.5 | 0.00 | 0.00 | 0.00 | 82 | 1011.4 |
| 20260505062551 | 55 | 172 | 0.9 | 5.2 | 0.00 | 0.00 | 0.00 | 82 | 1011.3 |
| 20260505062049 | 56 | 138 | 0.0 | 5.2 | 0.00 | 0.00 | 0.00 | 82 | 1011.4 |
| 20260505061546 | 56 | 159 | 1.7 | 3.5 | 0.00 | 0.00 | 0.00 | 81 | 1011.4 |
| 20260505061044 | 56 | 226 | 2.6 | 6.1 | 0.00 | 0.00 | 0.00 | 81 | 1011.4 |
| 20260505060541 | 56 | 170 | 0.9 | 3.5 | 0.00 | 0.00 | 0.00 | 81 | 1011.1 |
| 20260505060037 | 56 | 197 | 1.7 | 3.5 | 0.00 | 0.00 | 0.00 | 81 | 1011.3 |
| 20260505055533 | 56 | 139 | 0.9 | 3.5 | 0.00 | 0.00 | 0.00 | 80 | 1011.2 |
| 20260505055030 | 56 | 163 | 0.9 | 5.2 | 0.00 | 0.00 | 0.00 | 80 | 1011.3 |
| 20260505054527 | 56 | 199 | 1.7 | 5.2 | 0.00 | 0.00 | 0.00 | 80 | 1011.0 |
| 20260505054025 | 56 | 143 | 0.0 | 1.7 | 0.00 | 0.00 | 0.00 | 79 | 1011.0 |
| 20260505053522 | 57 | 123 | 1.7 | 2.6 | 0.00 | 0.00 | 0.00 | 79 | 1010.9 |
| 20260505053019 | 57 | 140 | 3.5 | 6.1 | 0.00 | 0.00 | 0.00 | 78 | 1011.0 |
| 20260505052516 | 57 | 171 | 0.9 | 2.6 | 0.00 | 0.00 | 0.00 | 78 | 1011.0 |
| 20260505052013 | 57 | 147 | 0.9 | 0.9 | 0.00 | 0.00 | 0.00 | 77 | 1010.8 |
| 20260505051510 | 58 | 195 | 1.7 | 5.2 | 0.00 | 0.00 | 0.00 | 77 | 1010.9 |
| 20260505051008 | 58 | 138 | 0.9 | 1.7 | 0.00 | 0.00 | 0.00 | 76 | 1010.9 |
| 20260505050506 | 58 | 175 | 0.9 | 2.6 | 0.00 | 0.00 | 0.00 | 75 | 1010.7 |
| 20260505041433 | 61 | 156 | 1.7 | 2.6 | 0.00 | 0.00 | 0.00 | 69 | 1010.1 |
| 20260505040931 | 62 | 218 | 1.7 | 3.5 | 0.00 | 0.00 | 0.00 | 68 | 1010.0 |
| 20260505040428 | 62 | 135 | 0.9 | 2.6 | 0.00 | 0.00 | 0.00 | 68 | 1010.0 |
| 20260505035925 | 63 | 145 | 0.9 | 1.7 | 0.00 | 0.00 | 0.00 | 67 | 1009.9 |
| 20260505035421 | 63 | 152 | 0.9 | 2.6 | 0.00 | 0.00 | 0.00 | 66 | 1009.9 |
| 20260505034918 | 63 | 148 | 1.7 | 2.6 | 0.00 | 0.00 | 0.00 | 65 | 1009.8 |
| 20260505034414 | 64 | 141 | 0.0 | 2.6 | 0.00 | 0.00 | 0.00 | 65 | 1009.8 |
| 20260505033912 | 64 | 141 | 0.9 | 1.7 | 0.00 | 0.00 | 0.00 | 64 | 1009.7 |
| 20260505033408 | 65 | 121 | 1.7 | 3.5 | 0.00 | 0.00 | 0.00 | 63 | 1009.6 |
| 20260505032907 | 65 | 146 | 0.9 | 2.6 | 0.00 | 0.00 | 0.00 | 62 | 1009.5 |
| 20260505032403 | 66 | 193 | 2.6 | 3.5 | 0.00 | 0.00 | 0.00 | 61 | 1009.6 |
| 20260505031900 | 66 | 140 | 0.9 | 1.7 | 0.00 | 0.00 | 0.00 | 60 | 1009.4 |
| 20260505031357 | 67 | 192 | 0.9 | 5.2 | 0.00 | 0.00 | 0.00 | 60 | 1009.4 |
| 20260505030854 | 68 | 122 | 0.9 | 2.6 | 0.00 | 0.00 | 0.00 | 58 | 1009.5 |
| 20260505030349 | 68 | 126 | 1.7 | 3.5 | 0.00 | 0.00 | 0.00 | 57 | 1009.3 |
| 20260505025845 | 69 | 144 | 0.0 | 0.9 | 0.00 | 0.00 | 0.00 | 56 | 1009.3 |
| 20260505025343 | 69 | 147 | 0.9 | 2.6 | 0.00 | 0.00 | 0.00 | 55 | 1009.1 |
| 20260505024842 | 70 | 141 | 0.9 | 5.2 | 0.00 | 0.00 | 0.00 | 54 | 1009.0 |
| 20260505024339 | 70 | 148 | 0.0 | 0.9 | 0.00 | 0.00 | 0.00 | 54 | 1009.1 |
| 20260505023836 | 71 | 155 | 1.7 | 5.2 | 0.00 | 0.00 | 0.00 | 53 | 1009.1 |
| 20260505023332 | 71 | 163 | 0.9 | 1.7 | 0.00 | 0.00 | 0.00 | 52 | 1009.2 |
| 20260505022830 | 72 | 190 | 3.5 | 5.2 | 0.00 | 0.00 | 0.00 | 49 | 1009.3 |
| 20260505022327 | 72 | 152 | 0.9 | 1.7 | 0.00 | 0.00 | 0.00 | 49 | 1009.1 |
| 20260505021824 | 72 | 181 | 1.7 | 2.6 | 0.00 | 0.00 | 0.00 | 47 | 1009.1 |
| 20260505021321 | 73 | 157 | 1.7 | 3.5 | 0.00 | 0.00 | 0.00 | 47 | 1009.1 |
| 20260505020816 | 73 | 169 | 0.9 | 3.5 | 0.00 | 0.00 | 0.00 | 47 | 1009.4 |
| 20260505020312 | 74 | 147 | 1.7 | 5.2 | 0.00 | 0.00 | 0.00 | 46 | 1009.0 |
| 20260505015809 | 74 | 188 | 4.3 | 5.2 | 0.00 | 0.00 | 0.00 | 46 | 1009.0 |
| 20260505015306 | 74 | 185 | 1.7 | 2.6 | 0.00 | 0.00 | 0.00 | 46 | 1009.1 |
| 20260505014804 | 74 | 170 | 3.5 | 5.2 | 0.00 | 0.00 | 0.00 | 46 | 1009.0 |
| 20260505014301 | 75 | 173 | 1.7 | 3.5 | 0.00 | 0.00 | 0.00 | 47 | 1009.1 |
| 20260505013757 | 76 | 184 | 2.6 | 6.1 | 0.00 | 0.00 | 0.00 | 45 | 1009.0 |
| 20260505013254 | 76 | 152 | 0.9 | 2.6 | 0.00 | 0.00 | 0.00 | 45 | 1009.1 |
| 20260505012753 | 76 | 166 | 0.9 | 1.7 | 0.00 | 0.00 | 0.00 | 45 | 1009.1 |
| 20260505012250 | 76 | 183 | 0.9 | 1.7 | 0.00 | 0.00 | 0.00 | 46 | 1008.9 |
| 20260505011745 | 76 | 166 | 0.0 | 1.7 | 0.00 | 0.00 | 0.00 | 46 | 1008.9 |
| 20260505011242 | 76 | 129 | 1.7 | 1.7 | 0.00 | 0.00 | 0.00 | 45 | 1009.1 |
| 20260505010738 | 76 | 223 | 0.9 | 1.7 | 0.00 | 0.00 | 0.00 | 45 | 1009.1 |
| 20260505010234 | 76 | 170 | 3.5 | 3.5 | 0.00 | 0.00 | 0.00 | 44 | 1009.1 |
| 20260505005731 | 77 | 126 | 1.7 | 2.6 | 0.00 | 0.00 | 0.00 | 43 | 1009.2 |
| 20260505005228 | 77 | 165 | 2.6 | 3.5 | 0.00 | 0.00 | 0.00 | 44 | 1009.2 |
| 20260505004725 | 78 | 173 | 1.7 | 1.7 | 0.00 | 0.00 | 0.00 | 43 | 1009.1 |
| 20260505004222 | 78 | 185 | 1.7 | 1.7 | 0.00 | 0.00 | 0.00 | 42 | 1009.0 |
| 20260505003719 | 77 | 139 | 0.9 | 5.2 | 0.00 | 0.00 | 0.00 | 43 | 1009.1 |
| 20260505003217 | 78 | 196 | 1.7 | 3.5 | 0.00 | 0.00 | 0.00 | 42 | 1009.1 |
| 20260505002713 | 78 | 133 | 0.9 | 2.6 | 0.00 | 0.00 | 0.00 | 42 | 1009.2 |